When you browse on this site, cookies collect data to enhance your experience and personalize the content and advertising you see.
Visit our Privacy Policy to learn more. By continuing to use the site, you agree to this use of cookies and data.
  • In Hungary
  • List of Countries
  • For 7 days
  • Water Temperature
  • Satellite Maps
  • Weather Map
  • News
  • Weather Widgets
  • user-avatar
    Login

    Hourly Weather Potoky

    Today, 20 July, Saturday

    Time Temperature Precipitation Wind Pressure Humidity
    00:00 +19°C° 0 mm 1 mps 757 mmHg 67%
    01:00 +19°C° 0 mm 1 mps 757 mmHg 69%
    02:00 +19°C° 0 mm 1 mps 757 mmHg 66%
    03:00 +19°C° 0 mm 1 mps 757 mmHg 68%
    04:00 +19°C° 0 mm 1 mps 758 mmHg 70%
    05:00 +19°C° 0 mm 1 mps 758 mmHg 72%
    06:00 +21°C° 0 mm 1 mps 758 mmHg 66%
    07:00 +23°C° 0 mm 1 mps 758 mmHg 60%
    08:00 +25°C° 0 mm 2 mps 758 mmHg 55%
    09:00 +26°C° 0 mm 2 mps 758 mmHg 51%
    10:00 +27°C° 0 mm 2 mps 758 mmHg 47%
    11:00 +28°C° 0 mm 3 mps 758 mmHg 42%
    12:00 +28°C° 0 mm 3 mps 758 mmHg 42%
    13:00 +29°C° 0 mm 3 mps 758 mmHg 42%
    14:00 +29°C° 0 mm 3 mps 758 mmHg 42%
    15:00 +29°C° 0 mm 3 mps 758 mmHg 43%
    16:00 +29°C° 0 mm 3 mps 758 mmHg 44%
    17:00 +28°C° 0 mm 3 mps 758 mmHg 45%
    18:00 +27°C° 0 mm 2 mps 758 mmHg 49%
    19:00 +25°C° 0 mm 1 mps 758 mmHg 53%
    20:00 +23°C° 0 mm 1 mps 758 mmHg 57%
    21:00 +21°C° 0 mm 0 mps 758 mmHg 58%
    22:00 +21°C° 0 mm 0 mps 758 mmHg 59%
    23:00 +20°C° 0 mm 0 mps 758 mmHg 60%

    Tomorrow, 21 July, Sunday

    Time Temperature Precipitation Wind Pressure Humidity
    00:00 +20°C° 0 mm 0 mps 758 mmHg 61%
    01:00 +19°C° 0 mm 0 mps 758 mmHg 62%
    02:00 +21°C° 0 mm 1 mps 758 mmHg 64%
    03:00 +21°C° 0 mm 1 mps 758 mmHg 65%
    04:00 +19°C° 0 mm 0 mps 758 mmHg 66%
    05:00 +19°C° 0 mm 0 mps 758 mmHg 67%
    06:00 +23°C° 0 mm 1 mps 758 mmHg 61%
    07:00 +25°C° 0 mm 1 mps 758 mmHg 56%
    08:00 +26°C° 0 mm 1 mps 758 mmHg 50%
    09:00 +27°C° 0 mm 1 mps 758 mmHg 47%
    10:00 +29°C° 0 mm 2 mps 758 mmHg 44%
    11:00 +30°C° 0 mm 2 mps 758 mmHg 41%
    12:00 +30°C° 0 mm 2 mps 757 mmHg 41%
    13:00 +30°C° 0 mm 2 mps 757 mmHg 41%
    14:00 +30°C° 0 mm 2 mps 757 mmHg 41%
    15:00 +30°C° 0 mm 2 mps 757 mmHg 42%
    16:00 +30°C° 0 mm 2 mps 757 mmHg 43%
    17:00 +30°C° 0 mm 2 mps 757 mmHg 44%
    18:00 +28°C° 0.2 mm 2 mps 757 mmHg 50%
    19:00 +26°C° 0.2 mm 1 mps 757 mmHg 56%
    20:00 +24°C° 0.2 mm 1 mps 757 mmHg 62%
    21:00 +24°C° 0.4 mm 1 mps 757 mmHg 66%
    22:00 +23°C° 0.4 mm 1 mps 757 mmHg 70%
    23:00 +22°C° 0.4 mm 1 mps 757 mmHg 73%

    Day after tomorrow, 22 July, Monday

    Time Temperature Precipitation Wind Pressure Humidity
    00:00 +22°C° 0 mm 1 mps 757 mmHg 74%
    01:00 +22°C° 0 mm 1 mps 757 mmHg 75%
    02:00 +21°C° 0 mm 1 mps 757 mmHg 75%
    03:00 +21°C° 0 mm 1 mps 757 mmHg 76%
    04:00 +21°C° 0 mm 1 mps 757 mmHg 77%
    05:00 +19°C° 0 mm 0 mps 756 mmHg 77%
    06:00 +23°C° 0 mm 1 mps 756 mmHg 72%
    07:00 +25°C° 0 mm 1 mps 756 mmHg 66%
    08:00 +27°C° 0 mm 1 mps 756 mmHg 60%
    09:00 +28°C° 0 mm 1 mps 756 mmHg 55%
    10:00 +29°C° 0 mm 2 mps 756 mmHg 50%
    11:00 +31°C° 0 mm 3 mps 756 mmHg 45%
    12:00 +31°C° 0 mm 3 mps 755 mmHg 44%
    13:00 +31°C° 0 mm 3 mps 755 mmHg 43%
    14:00 +33°C° 0 mm 3 mps 755 mmHg 42%
    15:00 +31°C° 0.1 mm 3 mps 754 mmHg 43%
    16:00 +31°C° 0.1 mm 3 mps 754 mmHg 45%
    17:00 +31°C° 0.1 mm 3 mps 754 mmHg 46%
    18:00 +29°C° 0.6 mm 2 mps 754 mmHg 56%
    19:00 +27°C° 0.6 mm 2 mps 754 mmHg 66%
    20:00 +24°C° 0.6 mm 2 mps 754 mmHg 76%
    21:00 +24°C° 0.7 mm 2 mps 754 mmHg 79%
    22:00 +23°C° 0.7 mm 2 mps 754 mmHg 83%
    23:00 +22°C° 0.7 mm 1 mps 754 mmHg 86%

    23 July, Tuesday

    Time Temperature Precipitation Wind Pressure Humidity
    00:00 +21°C° 0.7 mm 2 mps 754 mmHg 87%
    01:00 +21°C° 0.7 mm 2 mps 754 mmHg 88%
    02:00 +21°C° 0.7 mm 2 mps 754 mmHg 89%
    03:00 +21°C° 0.6 mm 3 mps 754 mmHg 89%
    04:00 +21°C° 0.6 mm 3 mps 754 mmHg 89%
    05:00 +20°C° 0.6 mm 4 mps 754 mmHg 89%
    06:00 +20°C° 0.2 mm 4 mps 754 mmHg 88%
    07:00 +20°C° 0.2 mm 3 mps 754 mmHg 87%
    08:00 +21°C° 0.2 mm 3 mps 754 mmHg 86%
    09:00 +22°C° 0.3 mm 3 mps 754 mmHg 80%
    10:00 +24°C° 0.3 mm 3 mps 754 mmHg 74%
    11:00 +25°C° 0.3 mm 3 mps 754 mmHg 68%
    12:00 +25°C° 0.7 mm 3 mps 754 mmHg 65%
    13:00 +26°C° 0.7 mm 3 mps 753 mmHg 62%
    14:00 +26°C° 0.7 mm 2 mps 753 mmHg 60%
    15:00 +26°C° 0.7 mm 3 mps 753 mmHg 63%
    16:00 +25°C° 0.7 mm 3 mps 753 mmHg 65%
    17:00 +25°C° 0.7 mm 3 mps 753 mmHg 68%
    18:00 +24°C° 0.1 mm 3 mps 753 mmHg 73%
    19:00 +22°C° 0.1 mm 3 mps 753 mmHg 78%
    20:00 +21°C° 0.1 mm 3 mps 753 mmHg 83%
    21:00 +20°C° 0.1 mm 3 mps 754 mmHg 85%
    22:00 +20°C° 0.1 mm 3 mps 754 mmHg 87%
    23:00 +19°C° 0.1 mm 3 mps 754 mmHg 89%

    24 July, Wednesday

    Time Temperature Precipitation Wind Pressure Humidity
    00:00 +19°C° 0 mm 3 mps 754 mmHg 90%
    01:00 +18°C° 0 mm 2 mps 754 mmHg 91%
    02:00 +17°C° 0 mm 2 mps 754 mmHg 92%
    03:00 +17°C° 0 mm 2 mps 754 mmHg 92%
    04:00 +17°C° 0 mm 2 mps 754 mmHg 92%
    05:00 +17°C° 0 mm 2 mps 754 mmHg 92%
    06:00 +19°C° 0 mm 2 mps 754 mmHg 86%
    07:00 +20°C° 0 mm 2 mps 754 mmHg 80%
    08:00 +21°C° 0 mm 2 mps 754 mmHg 75%
    09:00 +24°C° 0 mm 2 mps 754 mmHg 69%
    10:00 +25°C° 0 mm 2 mps 754 mmHg 63%
    11:00 +26°C° 0 mm 2 mps 754 mmHg 57%
    12:00 +27°C° 0.8 mm 2 mps 753 mmHg 57%
    13:00 +27°C° 0.8 mm 2 mps 753 mmHg 58%
    14:00 +27°C° 0.8 mm 3 mps 753 mmHg 58%
    15:00 +27°C° 0.7 mm 3 mps 753 mmHg 59%
    16:00 +27°C° 0.7 mm 3 mps 753 mmHg 60%
    17:00 +26°C° 0.7 mm 3 mps 753 mmHg 60%
    18:00 +25°C° 0 mm 3 mps 753 mmHg 65%
    19:00 +24°C° 0 mm 2 mps 753 mmHg 69%
    20:00 +23°C° 0 mm 2 mps 753 mmHg 73%
    21:00 +21°C° 0 mm 2 mps 753 mmHg 75%
    22:00 +20°C° 0 mm 2 mps 753 mmHg 77%
    23:00 +20°C° 0 mm 2 mps 753 mmHg 78%

    25 July, Thursday

    Time Temperature Precipitation Wind Pressure Humidity
    00:00 +20°C° 0 mm 2 mps 753 mmHg 79%
    01:00 +19°C° 0 mm 3 mps 753 mmHg 80%
    02:00 +19°C° 0 mm 3 mps 753 mmHg 81%
    03:00 +19°C° 0 mm 3 mps 753 mmHg 82%
    04:00 +19°C° 0 mm 3 mps 753 mmHg 83%
    05:00 +19°C° 0 mm 3 mps 752 mmHg 85%
    06:00 +19°C° 0.1 mm 3 mps 752 mmHg 84%
    07:00 +20°C° 0.1 mm 4 mps 752 mmHg 83%
    08:00 +21°C° 0.1 mm 4 mps 752 mmHg 83%
    09:00 +20°C° 1 mm 4 mps 752 mmHg 85%
    10:00 +20°C° 1 mm 4 mps 752 mmHg 88%
    11:00 +20°C° 1 mm 4 mps 752 mmHg 91%
    12:00 +22°C° 0.6 mm 4 mps 752 mmHg 84%
    13:00 +25°C° 0.6 mm 4 mps 751 mmHg 77%
    14:00 +26°C° 0.6 mm 4 mps 751 mmHg 70%
    15:00 +26°C° 0.9 mm 4 mps 751 mmHg 71%
    16:00 +26°C° 0.9 mm 4 mps 751 mmHg 71%
    17:00 +26°C° 0.9 mm 5 mps 751 mmHg 72%
    18:00 +25°C° 0.5 mm 4 mps 751 mmHg 77%
    19:00 +23°C° 0.5 mm 4 mps 751 mmHg 83%
    20:00 +22°C° 0.5 mm 4 mps 751 mmHg 89%
    21:00 +21°C° 0 mm 4 mps 752 mmHg 89%
    22:00 +21°C° 0 mm 4 mps 752 mmHg 90%
    23:00 +20°C° 0 mm 4 mps 752 mmHg 91%
    Show more